Regional Weather Roundup
Issued by NWS Cleveland, OH

Home | Current Version | Previous Version | Graphics & Text | Print | Product List | Glossary On
Versions: 1 2 3 4 5 6 7 8 9 10 11 12 13 14 15 16 17 18 19 20 21 22 23 24 25 26 27 28 29 30 31 32 33 34 35 36 37 38 39 40 41 42 43 44 45 46 47 48 49 50
000
ASUS41 KCLE 270502
RWRCLE
OHIO REGIONAL WEATHER ROUNDUP
NATIONAL WEATHER SERVICE CLEVELAND, OH
100 AM EDT WED AUG 27 2014

NOTE: "FAIR" INDICATES FEW OR NO CLOUDS BELOW 12,000 FEET WITH NO
SIGNIFICANT WEATHER AND/OR OBSTRUCTIONS TO VISIBILITY.

OHZ001>008-015>018-024>027-034-035-043-044-270600-
   NORTHWEST OHIO

CITY           SKY/WX    TMP DP  RH WIND       PRES   REMARKS
DEFIANCE       CLEAR     69  67  93 CALM      30.09R FOG
FINDLAY        CLEAR     73  70  90 W6        30.08R
TOLEDO EXPRESS CLEAR     72  69  90 NW6       30.07S
TOLEDO EXEC    CLEAR     72  68  87 W6        30.08R
LIMA           CLEAR     72  68  87 CALM      30.09F
$$

OHZ009>014-019>023-028>033-038-089-270600-
   NORTHEAST OHIO

CITY           SKY/WX    TMP DP  RH WIND       PRES   REMARKS
CLE-HOPKINS    PTCLDY    70  68  93 SW6       30.09R
CLE-LAKEFRONT  PTCLDY    74  68  81 CALM      30.06R
CUY CO. ARPT   NOT AVBL
LORAIN-ELYRIA  HAZE      72  67  84 SW5       30.08R VSB 3/4
ASHTABULA      MOCLDY    71  68  90 CALM      30.08R
AKRON-CANTON   PTCLDY    73  67  81 SW5       30.10R
WOOSTER        PTCLDY    72  68  87 SW8       30.09S
MANSFIELD      CLEAR     72  68  87 SW7       30.10S
YOUNGSTOWN     MOCLDY    71  67  87 SW3       30.09R
$$

OHZ042-051>053-060>062-070>072-077>081-270600-
  SOUTHWEST OHIO

CITY           SKY/WX    TMP DP  RH WIND       PRES   REMARKS
CINC-COVINGTON CLEAR     74  68  81 CALM      30.11R
CINC-LUNKEN    CLEAR     72  71  97 CALM      30.11R FOG
HAMILTON       CLEAR     70  69  97 CALM      30.11R
DAYTON         PTCLDY    73  68  84 CALM      30.11S
WRIGHT-PAT AFB CLEAR     72  70  93 E2        30.10S
DAYTON GENERAL CLEAR     72  70  93 S6        30.10R
WILMINGTON     CLEAR     71  67  87 SW3       30.11S
$$

OHZ036-037-039>041-045>050-054>059-063>069-073>076-082>088-270600-
  CENTRAL AND SOUTHEAST OHIO

CITY           SKY/WX    TMP DP  RH WIND       PRES   REMARKS
COLUMBUS       PTCLDY    78  66  66 SW3       30.09F
OSU AIRPORT    PTCLDY    75  67  76 S7        30.09F
BOLTON FIELD   PTCLDY    70  68  93 SW3       30.11S
RICKENBACK AFB CLEAR     73  64  73 CALM      30.09S
NEWARK         CLEAR     69  66  90 CALM      30.09F
MARION         CLEAR     72  65  78 SW5       30.09S
LANCASTER      CLEAR     68  66  93 CALM      30.10S
ZANESVILLE     CLEAR     70  65  84 E3        30.10R
NEW PHILLY     PTCLDY    68  67  96 SE3       30.10R FOG
$$


USA.gov is the U.S. government's official web portal to all federal, state and local government web resources and services.